GW2326 Weather Reports


time (UTC)temp
F
wind
direction
speed
knots
gust
knots
rain 1hr
in
rain 24hr
in
rain mn
in
humidity
%
barometer
mb
20260906223550 96 152 13.0 30.4 0.00 0.00 0.00 39 1014.2
20260906223102 96 161 12.2 30.4 0.00 0.00 0.00 38 1014.3
20260906222549 96 206 13.0 20.0 0.00 0.00 0.00 39 1014.3
20260906222049 96 215 5.2 13.0 0.00 0.00 0.00 39 1014.3
20260906221557 96 159 6.1 10.4 0.00 0.00 0.00 39 1014.3
20260906221051 95 154 6.1 13.0 0.00 0.00 0.00 40 1014.4
20260906220550 95 175 8.7 15.6 0.00 0.00 0.00 39 1014.4
20260906220053 96 148 7.8 15.6 0.00 0.00 0.00 39 1014.4
20260906215546 96 132 8.7 15.6 0.00 0.00 0.00 39 1014.4
20260906215049 95 155 2.6 11.3 0.00 0.00 0.00 40 1014.4
20260906214600 96 130 7.0 12.2 0.00 0.00 0.00 40 1014.4
20260906214053 96 150 8.7 13.0 0.00 0.00 0.00 40 1014.4
20260906213548 96 163 8.7 13.0 0.00 0.00 0.00 41 1014.4
20260906213059 95 130 7.0 24.3 0.00 0.00 0.00 41 1014.5
20260906212549 95 207 7.0 24.3 0.00 0.00 0.00 40 1014.7
20260906212051 95 138 12.2 24.3 0.00 0.00 0.00 41 1014.7
20260906211601 95 133 8.7 13.9 0.00 0.00 0.00 41 1014.8
20260906211049 94 134 8.7 15.6 0.00 0.00 0.00 42 1014.8
20260906210549 94 156 7.8 15.6 0.00 0.00 0.00 41 1014.9
20260906210106 95 150 7.8 14.8 0.00 0.00 0.00 41 1015.0
20260906205550 96 140 6.1 13.9 0.00 0.00 0.00 40 1015.2
20260906205049 95 192 0.9 9.6 0.00 0.00 0.00 41 1015.2
20260906204600 94 69 6.1 14.8 0.00 0.00 0.00 42 1015.3
20260906204049 94 153 7.8 14.8 0.00 0.00 0.00 43 1015.4
20260906203553 94 128 10.4 14.8 0.00 0.00 0.00 42 1015.5
20260906203104 94 196 5.2 11.3 0.00 0.00 0.00 42 1015.4
20260906202549 95 119 5.2 11.3 0.00 0.00 0.00 40 1015.4
20260906202051 95 129 2.6 14.8 0.00 0.00 0.00 41 1015.5
20260906201602 95 157 6.1 14.8 0.00 0.00 0.00 42 1015.7
20260906201047 94 199 8.7 14.8 0.00 0.00 0.00 43 1015.9
20260906200546 94 173 2.6 10.4 0.00 0.00 0.00 43 1015.7
20260906195550 94 45 5.2 13.9 0.00 0.00 0.00 41 1015.7
20260906195050 94 69 5.2 13.9 0.00 0.00 0.00 41 1015.8
20260906194555 94 126 7.8 14.8 0.00 0.00 0.00 41 1016.0
20260906194049 94 161 7.0 14.8 0.00 0.00 0.00 42 1016.1
20260906193553 94 124 6.1 14.8 0.00 0.00 0.00 41 1016.0
20260906193104 94 96 7.8 17.4 0.00 0.00 0.00 41 1016.1
20260906192549 94 169 6.1 20.0 0.00 0.00 0.00 41 1016.2
20260906192050 94 154 12.2 20.0 0.00 0.00 0.00 41 1016.3
20260906191610 94 66 4.3 18.2 0.00 0.00 0.00 42 1016.3
20260906191050 94 92 10.4 18.2 0.00 0.00 0.00 42 1016.4
20260906190550 94 163 7.0 20.0 0.00 0.00 0.00 43 1016.5
20260906190059 94 155 10.4 20.0 0.00 0.00 0.00 42 1016.6
20260906185550 93 124 12.2 17.4 0.00 0.00 0.00 43 1016.5
20260906185050 93 71 7.0 20.0 0.00 0.00 0.00 44 1016.4
20260906184604 93 182 2.6 20.0 0.00 0.00 0.00 45 1016.5
20260906184049 93 143 7.0 20.0 0.00 0.00 0.00 45 1016.7
20260906183549 93 165 6.1 16.5 0.00 0.00 0.00 44 1016.8
20260906183056 93 103 3.5 16.5 0.00 0.00 0.00 44 1016.8
20260906182552 93 111 11.3 16.5 0.00 0.00 0.00 44 1017.0
20260906182049 93 194 6.1 15.6 0.00 0.00 0.00 45 1017.0
20260906181603 92 136 6.1 15.6 0.00 0.00 0.00 47 1017.2
20260906181050 92 51 4.3 14.8 0.00 0.00 0.00 47 1017.3
20260906180548 92 133 4.3 14.8 0.00 0.00 0.00 47 1017.3
20260906180111 92 137 7.0 13.0 0.00 0.00 0.00 48 1017.4
20260906175548 92 156 7.0 12.2 0.00 0.00 0.00 48 1017.4
20260906175053 92 91 6.1 10.4 0.00 0.00 0.00 47 1017.5
20260906174603 91 117 1.7 7.8 0.00 0.00 0.00 48 1017.7
20260906174048 91 124 0.9 13.0 0.00 0.00 0.00 49 1017.8
20260906173547 91 131 9.6 13.0 0.00 0.00 0.00 48 1017.9
20260906173101 90 105 3.5 11.3 0.00 0.00 0.00 49 1018.0
20260906172548 90 111 2.6 12.2 0.00 0.00 0.00 50 1018.0
20260906172048 89 156 2.6 12.2 0.00 0.00 0.00 53 1018.1
20260906171605 89 143 6.1 11.3 0.00 0.00 0.00 53 1018.1
20260906171049 89 155 4.3 8.7 0.00 0.00 0.00 52 1018.1
20260906170549 89 160 2.6 7.8 0.00 0.00 0.00 55 1018.2
20260906170107 89 220 4.3 7.8 0.00 0.00 0.00 57 1018.2
20260906165548 88 231 4.3 8.7 0.00 0.00 0.00 57 1018.3
20260906165050 88 188 2.6 8.7 0.00 0.00 0.00 57 1018.3
20260906164602 87 221 1.7 7.8 0.00 0.00 0.00 59 1018.4
20260906164048 87 313 3.5 7.8 0.00 0.00 0.00 60 1018.4
20260906163547 87 5 5.2 7.8 0.00 0.00 0.00 60 1018.5
20260906163114 87 325 3.5 7.8 0.00 0.00 0.00 60 1018.5
20260906162548 87 325 0.9 7.8 0.00 0.00 0.00 61 1018.5
20260906162052 87 334 2.6 7.8 0.00 0.00 0.00 60 1018.5
20260906161601 87 0 0.9 5.2 0.00 0.00 0.00 61 1018.5
20260906161048 86 123 1.7 5.2 0.00 0.00 0.00 62 1018.5
20260906160548 86 152 0.9 4.3 0.00 0.00 0.00 63 1018.5
20260906160104 85 201 0.9 4.3 0.00 0.00 0.00 64 1018.5
20260906155548 85 223 0.9 3.5 0.00 0.00 0.00 64 1018.5
20260906155047 84 0 0.9 2.6 0.00 0.00 0.00 64 1018.5
20260906154558 84 0 0.0 5.2 0.00 0.00 0.00 65 1018.6
20260906154050 84 231 0.9 5.2 0.00 0.00 0.00 66 1018.5
20260906153549 83 318 2.6 5.2 0.00 0.00 0.00 65 1018.5
20260906153118 83 310 0.9 4.3 0.00 0.00 0.00 66 1018.5
20260906152547 83 293 1.7 4.3 0.00 0.00 0.00 66 1018.4
20260906152047 83 239 0.9 3.5 0.00 0.00 0.00 66 1018.4
20260906151605 83 293 0.9 4.3 0.00 0.00 0.00 67 1018.2
20260906151047 83 135 0.9 4.3 0.00 0.00 0.00 67 1018.2
20260906150547 82 0 0.0 4.3 0.00 0.00 0.00 68 1018.1
20260906150113 82 300 3.5 5.2 0.00 0.00 0.00 67 1018.2
20260906145550 82 0 0.9 5.2 0.00 0.00 0.00 68 1018.1
20260906145050 82 315 2.6 5.2 0.00 0.00 0.00 68 1018.1
20260906144603 82 0 2.6 5.2 0.00 0.00 0.00 68 1018.1
20260906144049 82 250 0.0 6.1 0.00 0.00 0.00 68 1018.1
20260906143551 82 288 2.6 7.8 0.00 0.00 0.00 69 1018.1
20260906143100 81 221 2.6 7.8 0.00 0.00 0.00 69 1018.0
20260906142550 82 237 1.7 5.2 0.00 0.00 0.00 68 1018.0
20260906142051 82 228 0.9 2.6 0.00 0.00 0.00 67 1017.9
20260906141604 82 0 0.0 2.6 0.00 0.00 0.00 67 1017.9
20260906141050 82 0 0.0 2.6 0.00 0.00 0.00 67 1017.9
20260906140553 82 341 0.9 2.6 0.00 0.00 0.00 66 1017.9
20260906140104 82 141 0.0 2.6 0.00 0.00 0.00 67 1017.9
20260906135553 81 0 0.0 2.6 0.00 0.00 0.00 68 1017.8
20260906135049 80 0 0.0 3.5 0.00 0.00 0.00 69 1017.8
20260906134558 79 106 0.9 3.5 0.00 0.00 0.00 70 1017.9
20260906134050 79 146 0.9 3.5 0.00 0.00 0.00 70 1017.8
20260906133550 79 132 0.9 2.6 0.00 0.00 0.00 71 1017.7
20260906133136 78 111 0.9 2.6 0.00 0.00 0.00 71 1017.6
20260906132550 77 96 0.9 3.5 0.00 0.00 0.00 71 1017.5
20260906132050 76 130 1.7 3.5 0.00 0.00 0.00 71 1017.5
20260906131601 76 74 1.7 3.5 0.00 0.00 0.00 69 1017.5
20260906131049 76 60 1.7 3.5 0.00 0.00 0.00 69 1017.4
20260906130549 75 68 0.9 2.6 0.00 0.00 0.00 70 1017.3
20260906130109 75 0 0.0 0.0 0.00 0.00 0.00 69 1017.3
20260906125549 74 0 0.0 0.0 0.00 0.00 0.00 70 1017.2
20260906125050 74 0 0.0 0.0 0.00 0.00 0.00 72 1017.2
20260906124555 74 0 0.0 0.0 0.00 0.00 0.00 71 1017.1
20260906124050 74 0 0.0 1.7 0.00 0.00 0.00 70 1017.0
20260906123550 74 0 0.0 1.7 0.00 0.00 0.00 71 1017.0
20260906123054 74 154 0.9 2.6 0.00 0.00 0.00 71 1016.8
20260906122550 74 154 0.9 2.6 0.00 0.00 0.00 71 1016.8
20260906122049 74 155 1.7 2.6 0.00 0.00 0.00 72 1016.7
20260906121555 74 0 0.0 0.0 0.00 0.00 0.00 72 1016.6
20260906121049 74 0 0.0 0.0 0.00 0.00 0.00 73 1016.7
20260906120549 74 0 0.0 0.0 0.00 0.00 0.00 73 1016.6
20260906115549 74 0 0.0 0.0 0.00 0.00 0.00 72 1016.6
20260906115049 74 0 0.0 1.7 0.00 0.00 0.00 72 1016.6
20260906114602 74 0 0.0 2.6 0.00 0.00 0.00 71 1016.6
20260906114050 74 154 0.9 3.5 0.00 0.00 0.00 71 1016.6
20260906113549 74 146 1.7 3.5 0.00 0.00 0.00 70 1016.5
20260906113101 74 146 1.7 3.5 0.00 0.00 0.00 70 1016.5
20260906112549 74 142 2.6 3.5 0.00 0.00 0.00 68 1016.5
20260906112050 75 138 2.6 3.5 0.00 0.00 0.00 67 1016.4
20260906111618 75 128 1.7 3.5 0.00 0.00 0.00 67 1016.3
20260906111049 75 0 0.0 0.0 0.00 0.00 0.00 66 1016.4
20260906110549 76 0 0.0 0.0 0.00 0.00 0.00 67 1016.3
20260906105550 76 0 0.0 0.0 0.00 0.00 0.00 70 1016.3
20260906105049 76 0 0.0 0.0 0.00 0.00 0.00 69 1016.3
20260906104602 76 0 0.0 0.0 0.00 0.00 0.00 70 1016.3
20260906104057 76 0 0.0 0.0 0.00 0.00 0.00 68 1016.2
20260906103549 76 0 0.0 0.0 0.00 0.00 0.00 68 1016.1
20260906103057 76 0 0.0 0.0 0.00 0.00 0.00 68 1016.1
20260906102549 76 0 0.0 0.0 0.00 0.00 0.00 68 1016.1
20260906102049 76 0 0.0 0.0 0.00 0.00 0.00 67 1016.1
20260906101556 76 0 0.0 0.0 0.00 0.00 0.00 67 1016.1
20260906101049 76 0 0.0 0.0 0.00 0.00 0.00 67 1016.1
20260906100550 76 0 0.0 0.0 0.00 0.00 0.00 67 1016.0
20260906100100 76 0 0.0 0.9 0.00 0.00 0.00 66 1015.9
20260906095551 76 0 0.0 1.7 0.00 0.00 0.00 66 1015.9
20260906095050 76 0 0.0 1.7 0.00 0.00 0.00 66 1016.0
20260906094554 76 173 0.0 2.6 0.00 0.00 0.00 67 1016.0
20260906094050 76 158 0.9 4.3 0.00 0.00 0.00 66 1015.9
20260906093550 77 155 1.7 4.3 0.00 0.00 0.00 64 1016.0
20260906093105 77 155 2.6 4.3 0.00 0.00 0.00 65 1016.0
20260906092550 77 154 1.7 4.3 0.00 0.00 0.00 64 1015.9
20260906092050 77 0 0.0 1.7 0.00 0.00 0.00 65 1015.8
20260906091601 77 0 0.0 1.7 0.00 0.00 0.00 65 1015.7
20260906091049 77 0 0.0 1.7 0.00 0.00 0.00 64 1015.8
20260906090549 77 200 0.0 3.5 0.00 0.00 0.00 64 1015.7
20260906085553 78 190 1.7 5.2 0.00 0.00 0.00 63 1015.5
20260906085046 78 167 3.5 7.8 0.00 0.00 0.00 63 1015.7
20260906084606 78 196 4.3 10.4 0.00 0.00 0.00 63 1015.7
20260906084050 77 172 6.1 11.3 0.00 0.00 0.00 63 1015.8
20260906083552 77 176 7.0 11.3 0.00 0.00 0.00 64 1015.9
20260906083102 77 165 3.5 6.1 0.00 0.00 0.00 63 1015.9
20260906082549 77 149 3.5 7.0 0.00 0.00 0.00 63 1015.7
20260906082049 77 151 5.2 7.0 0.00 0.00 0.00 63 1015.7
20260906081603 77 149 5.2 7.0 0.00 0.00 0.00 62 1015.7
20260906081049 78 143 6.1 7.0 0.00 0.00 0.00 61 1015.8
20260906080550 78 131 5.2 6.1 0.00 0.00 0.00 61 1015.8
20260906080104 78 126 3.5 7.8 0.00 0.00 0.00 61 1015.8
20260906075549 78 128 4.3 8.7 0.00 0.00 0.00 61 1015.8
20260906075050 78 120 7.0 8.7 0.00 0.00 0.00 61 1016.0
20260906074601 78 120 3.5 6.1 0.00 0.00 0.00 58 1016.0
20260906074049 78 98 4.3 6.1 0.00 0.00 0.00 58 1016.0
20260906073549 79 84 0.0 4.3 0.00 0.00 0.00 56 1015.9
20260906073101 79 0 0.0 0.0 0.00 0.00 0.00 59 1016.0
20260906072550 79 0 0.0 0.0 0.00 0.00 0.00 59 1016.0
20260906072050 79 0 0.0 0.0 0.00 0.00 0.00 59 1016.1
20260906071554 79 0 0.0 0.0 0.00 0.00 0.00 59 1016.1
20260906071050 79 0 0.0 0.0 0.00 0.00 0.00 58 1016.1
20260906070550 79 0 0.0 0.0 0.00 0.00 0.00 58 1016.2
20260906065549 80 0 0.0 0.0 0.00 0.00 0.00 58 1016.3
20260906065050 80 0 0.0 0.0 0.00 0.00 0.00 58 1016.3
20260906064558 80 0 0.0 0.0 0.00 0.00 0.00 58 1016.3
20260906064050 80 0 0.0 1.7 0.00 0.00 0.00 57 1016.3
20260906063549 80 0 0.0 1.7 0.00 0.00 0.00 57 1016.3
20260906063055 80 183 0.9 2.6 0.00 0.00 0.00 57 1016.4
20260906062549 80 189 0.9 2.6 0.00 0.00 0.00 57 1016.3
20260906062050 81 184 0.9 3.5 0.00 0.00 0.00 57 1016.5
20260906061600 81 183 1.7 3.5 0.00 0.00 0.00 56 1016.5
20260906061049 81 176 0.9 3.5 0.00 0.00 0.00 56 1016.5
20260906060549 81 0 0.0 1.7 0.00 0.00 0.00 56 1016.5
20260906060103 81 0 0.0 1.7 0.00 0.00 0.00 56 1016.6
20260906055549 81 188 0.9 1.7 0.00 0.00 0.00 56 1016.5
20260906055050 81 205 0.9 2.6 0.00 0.00 0.00 56 1016.5
20260906054606 81 206 0.9 2.6 0.00 0.00 0.00 56 1016.6
20260906054050 81 206 1.7 2.6 0.00 0.00 0.00 55 1016.5
20260906053550 82 205 0.9 2.6 0.00 0.00 0.00 55 1016.7
20260906053100 82 204 1.7 4.3 0.00 0.00 0.00 54 1016.6
20260906052550 82 202 1.7 6.1 0.00 0.00 0.00 54 1016.5
20260906052048 83 360 3.5 7.0 0.00 0.00 0.00 54 1016.6
20260906051612 83 171 5.2 7.0 0.00 0.00 0.00 53 1016.6
20260906051048 83 171 5.2 7.0 0.00 0.00 0.00 53 1016.6
20260906050549 83 165 5.2 7.8 0.00 0.00 0.00 52 1016.6
20260906050059 84 169 5.2 7.8 0.00 0.00 0.00 52 1016.6
20260906045547 84 185 5.2 7.8 0.00 0.00 0.00 52 1016.7
20260906045051 84 171 6.1 8.7 0.00 0.00 0.00 51 1016.6
20260906044606 85 164 6.1 10.4 0.00 0.00 0.00 51 1016.6
20260906044048 85 167 7.0 10.4 0.00 0.00 0.00 51 1016.6
20260906043551 85 164 7.0 10.4 0.00 0.00 0.00 50 1016.6
20260906043053 85 170 7.0 10.4 0.00 0.00 0.00 50 1016.6
20260906042549 85 178 7.0 9.6 0.00 0.00 0.00 50 1016.6
20260906042048 85 169 5.2 9.6 0.00 0.00 0.00 50 1016.6
20260906041602 86 178 6.1 10.4 0.00 0.00 0.00 49 1016.7
20260906041047 86 161 7.0 12.2 0.00 0.00 0.00 49 1016.6
20260906040548 86 171 8.7 12.2 0.00 0.00 0.00 49 1016.6
20260906040138 86 162 7.8 13.0 0.00 0.00 0.00 48 1016.5
20260906035547 87 144 8.7 13.0 0.00 0.00 0.00 48 1016.5
20260906035047 87 148 9.6 13.0 0.00 0.00 0.00 48 1016.3
20260906034620 87 147 9.6 13.0 0.00 0.00 0.00 48 1016.1
20260906034047 87 132 8.7 13.0 0.00 0.00 0.00 48 1016.2
20260906033547 87 148 8.7 11.3 0.00 0.00 0.00 48 1016.2
20260906033108 87 141 8.7 12.2 0.00 0.00 0.00 48 1016.2
20260906032547 87 141 7.8 12.2 0.00 0.00 0.00 47 1016.0
20260906032047 87 143 8.7 13.9 0.00 0.00 0.00 47 1015.9
20260906031601 88 151 8.7 13.9 0.00 0.00 0.00 47 1015.9
20260906031048 88 161 8.7 12.2 0.00 0.00 0.00 47 1015.9
20260906030548 88 144 8.7 12.2 0.00 0.00 0.00 47 1015.8
20260906030104 88 142 8.7 12.2 0.00 0.00 0.00 47 1015.7
20260906025547 88 138 8.7 12.2 0.00 0.00 0.00 47 1015.7
20260906025048 88 132 9.6 13.0 0.00 0.00 0.00 46 1015.6
20260906024614 89 145 9.6 13.0 0.00 0.00 0.00 46 1015.5
20260906024047 89 136 9.6 13.0 0.00 0.00 0.00 46 1015.3
20260906023550 89 132 9.6 13.0 0.00 0.00 0.00 46 1015.2
20260906023103 89 142 10.4 13.0 0.00 0.00 0.00 46 1015.2
20260906022548 89 141 10.4 13.0 0.00 0.00 0.00 46 1015.2
20260906022051 90 132 10.4 13.0 0.00 0.00 0.00 45 1015.1
20260906021601 90 125 10.4 13.0 0.00 0.00 0.00 45 1015.0
20260906021049 90 138 9.6 13.0 0.00 0.00 0.00 45 1014.9
20260906020549 90 130 9.6 12.2 0.00 0.00 0.00 45 1014.5
20260906020107 90 131 9.6 13.0 0.00 0.00 0.00 45 1014.5
20260906015550 90 135 10.4 13.0 0.00 0.00 0.00 44 1014.5
20260906015050 91 137 9.6 13.0 0.00 0.00 0.00 44 1014.4
20260906014556 91 132 9.6 13.0 0.00 0.00 0.00 43 1014.5
20260906014049 91 131 9.6 13.0 0.00 0.00 0.00 42 1014.4
20260906013551 91 134 9.6 12.2 0.00 0.00 0.00 41 1014.3
20260906013117 91 138 8.7 11.3 0.00 0.00 0.00 41 1014.3
20260906012549 92 125 8.7 11.3 0.00 0.00 0.00 40 1014.3
20260906012049 92 130 8.7 13.0 0.00 0.00 0.00 40 1014.3
20260906011604 92 129 9.6 13.0 0.00 0.00 0.00 40 1014.2
20260906011052 93 131 10.4 13.0 0.00 0.00 0.00 39 1014.2
20260906010549 93 137 10.4 13.9 0.00 0.00 0.00 39 1014.1
20260906005552 93 128 9.6 13.0 0.00 0.00 0.00 39 1014.0
20260906005050 94 126 10.4 13.9 0.00 0.00 0.00 39 1014.0
20260906004555 94 127 9.6 15.6 0.00 0.00 0.00 39 1014.0
20260906004049 94 142 10.4 18.2 0.00 0.00 0.00 39 1014.0
20260906003549 94 139 13.0 18.2 0.00 0.00 0.00 39 1014.0
20260906003102 95 123 12.2 15.6 0.00 0.00 0.00 39 1014.0
20260906002554 95 126 12.2 14.8 0.00 0.00 0.00 39 1013.9
20260906002050 95 140 11.3 14.8 0.00 0.00 0.00 39 1013.9
20260906001608 95 125 10.4 13.9 0.00 0.00 0.00 39 1013.8
20260906001050 95 129 10.4 14.8 0.00 0.00 0.00 39 1013.8
20260906000550 95 131 10.4 17.4 0.00 0.00 0.00 40 1013.8
20260906000058 95 116 12.2 17.4 0.00 0.00 0.00 40 1013.8
20260905235550 95 107 13.9 17.4 0.00 0.00 0.00 40 1013.7
20260905235050 96 127 14.8 17.4 0.00 0.00 0.00 40 1013.7
20260905234603 96 137 13.9 17.4 0.00 0.00 0.00 40 1013.6
20260905234049 96 146 11.3 13.9 0.00 0.00 0.00 40 1013.5
20260905233550 96 135 10.4 13.9 0.00 0.00 0.00 39 1013.4
20260905233104 96 119 11.3 16.5 0.00 0.00 0.00 39 1013.5
20260905232550 96 127 12.2 16.5 0.00 0.00 0.00 40 1013.5
20260905232050 96 140 10.4 15.6 0.00 0.00 0.00 40 1013.4
20260905231600 96 129 9.6 15.6 0.00 0.00 0.00 40 1013.5
20260905231050 96 147 9.6 13.0 0.00 0.00 0.00 40 1013.4
20260905230550 96 178 7.8 17.4 0.00 0.00 0.00 40 1013.5
20260905230107 96 130 8.7 17.4 0.00 0.00 0.00 40 1013.4
20260905225549 96 157 8.7 17.4 0.00 0.00 0.00 40 1013.5
20260905225050 96 121 10.4 17.4 0.00 0.00 0.00 40 1013.5
20260905224618 96 152 13.0 17.4 0.00 0.00 0.00 40 1013.5
20260905224050 96 117 6.1 15.6 0.00 0.00 0.00 40 1013.6